TimeMDT,TemperatureF,Dew PointF,Humidity,Sea Level PressureIn,VisibilityMPH,Wind Direction,Wind SpeedMPH,Gust SpeedMPH,PrecipitationIn,Events,Conditions,WindDirDegrees,DateUTC
12:53 AM,30.9,28.9,92,29.91,10.0,Calm,Calm,-,N/A,,Clear,0,2011-10-07 06:53:00
1:53 AM,30.9,28.9,92,29.91,10.0,Calm,Calm,-,N/A,,Clear,0,2011-10-07 07:53:00
2:53 AM,30.9,28.0,89,29.90,10.0,ESE,5.8,-,N/A,,Clear,110,2011-10-07 08:53:00
3:53 AM,30.9,28.0,89,29.90,10.0,Calm,Calm,-,N/A,,Clear,0,2011-10-07 09:53:00
4:53 AM,28.9,27.0,92,29.91,10.0,SE,3.5,-,N/A,,Clear,140,2011-10-07 10:53:00
5:53 AM,30.0,28.0,92,29.90,10.0,Calm,Calm,-,N/A,,Clear,0,2011-10-07 11:53:00
6:53 AM,28.9,27.0,92,29.94,10.0,Calm,Calm,-,N/A,,Clear,0,2011-10-07 12:53:00
7:53 AM,28.9,27.0,92,29.96,10.0,SE,4.6,-,N/A,,Clear,130,2011-10-07 13:53:00
8:53 AM,33.1,30.9,92,29.97,10.0,Calm,Calm,-,N/A,,Overcast,0,2011-10-07 14:53:00
9:53 AM,37.0,32.0,82,29.96,10.0,ENE,5.8,-,N/A,,Overcast,70,2011-10-07 15:53:00
11:53 AM,42.1,35.1,76,29.94,10.0,WNW,13.8,-,0.00,,Overcast,300,2011-10-07 17:53:00
12:53 PM,39.9,37.0,89,29.97,3.0,WNW,9.2,-,0.05,Rain,Heavy Rain,290,2011-10-07 18:53:00
1:11 PM,42.8,39.2,87,29.99,10.0,West,13.8,17.3,0.00,Rain,Light Rain,280,2011-10-07 19:11:00
1:53 PM,44.1,39.0,82,29.95,10.0,WNW,13.8,-,0.00,,Partly Cloudy,290,2011-10-07 19:53:00
2:53 PM,43.0,37.0,80,29.96,10.0,WNW,15.0,-,N/A,,Partly Cloudy,290,2011-10-07 20:53:00
3:07 PM,42.8,37.4,81,30.00,10.0,WNW,15.0,-,N/A,,Mostly Cloudy,290,2011-10-07 21:07:00
3:34 PM,42.8,37.4,81,30.00,10.0,WNW,9.2,-,N/A,,Scattered Clouds,290,2011-10-07 21:34:00
3:53 PM,45.0,37.9,76,29.96,10.0,WNW,9.2,-,N/A,,Clear,290,2011-10-07 21:53:00
4:53 PM,46.0,34.0,63,29.95,10.0,Calm,Calm,-,N/A,,Clear,0,2011-10-07 22:53:00
5:53 PM,45.0,34.0,65,29.96,10.0,WSW,5.8,-,N/A,,Clear,250,2011-10-07 23:53:00
6:33 PM,44.6,35.6,71,30.00,10.0,SW,5.8,-,N/A,,Overcast,230,2011-10-08 00:33:00
6:41 PM,42.8,37.4,81,30.00,10.0,SSW,9.2,-,N/A,,Overcast,210,2011-10-08 00:41:00
6:53 PM,42.1,37.0,82,29.99,10.0,Variable,3.5,-,N/A,,Overcast,0,2011-10-08 00:53:00
7:01 PM,42.8,37.4,81,30.01,10.0,SSW,9.2,-,N/A,,Overcast,210,2011-10-08 01:01:00
7:53 PM,41.0,36.0,82,30.00,10.0,WSW,4.6,-,N/A,,Overcast,240,2011-10-08 01:53:00
8:53 PM,37.9,35.1,89,29.98,10.0,Calm,Calm,-,N/A,,Clear,0,2011-10-08 02:53:00
9:53 PM,37.9,35.1,89,29.98,10.0,Calm,Calm,-,N/A,,Scattered Clouds,0,2011-10-08 03:53:00
10:53 PM,39.0,36.0,89,29.94,10.0,South,4.6,-,N/A,,Overcast,190,2011-10-08 04:53:00
11:53 PM,39.0,35.1,86,29.93,10.0,West,10.4,-,N/A,,Overcast,280,2011-10-08 05:53:00